Simultaneous Nadir Overpasses (SNOs) Predictions

Prediction of SNOs between METOP-C and LANDSAT-8 Satellite Orbit:

Table of predicted SNOs for the next 14.0 days since TLE Epoch: 7/27/2024
Index Date (METOP-C) Time (METOP-C) Lat,Lon (METOP-C) SZA (METOP-C ) Date (LANDSAT-8) Time (LANDSAT-8) Lat,Lon (LANDSAT-8) SZA (LANDSAT-8 ) Distance(km) Time Diff (sec)
1 07/29/2024 02:39:53 81.09, 179.53 64.39 07/29/2024 02:40:34 81.10, 179.47 64.40 1.13 41
2 07/29/2024 03:30:33 -81.11, -12.55 115.54 07/29/2024 03:30:00 -81.11, -12.64 115.56 1.50 33
3 07/31/2024 22:14:18 81.10,-114.03 65.08 07/31/2024 22:14:49 81.09,-114.20 65.07 2.94 31
4 07/31/2024 23:04:58 -81.12, 53.89 114.84 07/31/2024 23:04:15 -81.11, 53.72 114.88 3.04 43
5 08/03/2024 17:48:43 81.09, -47.68 65.81 08/03/2024 17:49:03 81.09, -47.75 65.81 1.24 20
6 08/03/2024 18:39:23 -81.11, 120.23 114.11 08/03/2024 18:38:29 -81.11, 120.19 114.14 0.89 54
7 08/06/2024 13:23:06 81.10, 18.96 66.61 08/06/2024 13:23:15 81.10, 18.81 66.59 2.48 9
8 08/06/2024 14:13:46 -81.12,-173.14 113.31 08/06/2024 14:12:41 -81.12,-173.23 113.35 1.51 65
9 08/09/2024 08:06:53 -81.06, -83.00 112.73 08/09/2024 08:08:03 -81.06, -82.90 112.69 1.82 70



Historial Predications of SNOs between METOP-C and LANDSAT-8
